This is the latest recevied weather packets stored in our database for station/object CR7BQX-11. If no packets are shown the sender has not sent any weather packets the latest 10 day(s).
| Time | Temp. | Humidity | Pressure | Rain* | Wind** | Luminosity | Snow |
|---|---|---|---|---|---|---|---|
| 1777508929 | 23.89° C | 54% | 1001.6 hPa | - | - | - | - |
| 1777508021 | 24.44° C | 54% | 1001.5 hPa | - | - | - | - |
| 1777507121 | 24.44° C | 54% | 1001.4 hPa | - | - | - | - |
| 1777506221 | 24.44° C | 55% | 1001.2 hPa | - | - | - | - |
| 1777505321 | 24.44° C | 55% | 1001.1 hPa | - | - | - | - |
| 1777504421 | 24.44° C | 55% | 1000.9 hPa | - | - | - | - |
| 1777503521 | 24.44° C | 56% | 1000.8 hPa | - | - | - | - |
| 1777502620 | 25° C | 54% | 1000.6 hPa | - | - | - | - |
| 1777501720 | 24.44° C | 52% | 1000.6 hPa | - | - | - | - |
| 1777500820 | 24.44° C | 53% | 1000.5 hPa | - | - | - | - |
| 1777499924 | 25° C | 52% | 1000.4 hPa | - | - | - | - |
| 1777499024 | 24.44° C | 53% | 1000.3 hPa | - | - | - | - |
| 1777498124 | 24.44° C | 52% | 1000.1 hPa | - | - | - | - |
| 1777497223 | 24.44° C | 53% | 1000 hPa | - | - | - | - |
| 1777496323 | 24.44° C | 53% | 999.9 hPa | - | - | - | - |
| 1777495423 | 24.44° C | 53% | 999.7 hPa | - | - | - | - |
| 1777494523 | 23.89° C | 54% | 999.5 hPa | - | - | - | - |
| 1777493623 | 23.89° C | 54% | 999.3 hPa | - | - | - | - |
| 1777491822 | 23.89° C | 54% | 998.6 hPa | - | - | - | - |
| 1777490922 | 23.89° C | 53% | 998.4 hPa | - | - | - | - |
| 1777490022 | 23.89° C | 52% | 998.2 hPa | - | - | - | - |
| 1777489122 | 21.67° C | 57% | 997.9 hPa | - | - | - | - |
| 1777488222 | 21.67° C | 57% | 997.6 hPa | - | - | - | - |
| 1777487322 | 22.22° C | 57% | 997.6 hPa | - | - | - | - |
| 1777486421 | 22.22° C | 57% | 997.5 hPa | - | - | - | - |
* Rain since midnight (hover to see other rain measurements)
** Current wind speed in m/s (hover to see current wind gust speed)